| time (UTC) | temp F | wind direction | speed MPH | gust MPH | rain 1hr in | rain 24hr in | rain mn in | humidity % | barometer mb |
| 20260504050016 | 65 | 295 | 7.0 | 14.0 | 0.00 | 0.00 | 0.00 | 63 | 1013.3 |
| 20260504044515 | 66 | 310 | 6.0 | 16.0 | 0.00 | 0.00 | 0.00 | 63 | 1013.3 |
| 20260504043015 | 65 | 304 | 9.0 | 15.0 | 0.00 | 0.00 | 0.00 | 63 | 1013.3 |
| 20260504041514 | 66 | 288 | 9.0 | 15.0 | 0.00 | 0.00 | 0.00 | 63 | 1013.2 |
| 20260504040014 | 65 | 326 | 7.0 | 14.0 | 0.00 | 0.00 | 0.00 | 65 | 1013.3 |
| 20260504034521 | 66 | 289 | 10.0 | 14.0 | 0.00 | 0.00 | 0.00 | 64 | 1013.3 |
| 20260504033013 | 65 | 323 | 8.0 | 15.0 | 0.00 | 0.00 | 0.00 | 65 | 1013.5 |
| 20260504031513 | 66 | 308 | 10.0 | 17.0 | 0.00 | 0.00 | 0.00 | 63 | 1013.5 |
| 20260504030012 | 67 | 286 | 9.0 | 16.0 | 0.00 | 0.00 | 0.00 | 63 | 1013.7 |
| 20260504024510 | 67 | 296 | 9.0 | 17.0 | 0.00 | 0.00 | 0.00 | 63 | 1013.9 |
| 20260504023007 | 66 | 296 | 11.0 | 18.0 | 0.00 | 0.00 | 0.00 | 64 | 1014.1 |
| 20260504021505 | 66 | 309 | 8.0 | 17.0 | 0.00 | 0.00 | 0.00 | 65 | 1014.3 |
| 20260504020004 | 65 | 298 | 10.0 | 19.0 | 0.00 | 0.00 | 0.00 | 65 | 1014.5 |
| 20260504014601 | 64 | 311 | 11.0 | 19.0 | 0.00 | 0.00 | 0.00 | 65 | 1014.5 |
| 20260504013105 | 64 | 311 | 8.0 | 16.0 | 0.00 | 0.00 | 0.00 | 67 | 1014.6 |
| 20260504011557 | 63 | 300 | 10.0 | 17.0 | 0.00 | 0.00 | 0.00 | 67 | 1014.6 |
| 20260504010057 | 63 | 259 | 10.0 | 15.0 | 0.00 | 0.00 | 0.00 | 67 | 1014.5 |
| 20260504004647 | 62 | 294 | 9.0 | 20.0 | 0.00 | 0.00 | 0.00 | 69 | 1014.4 |
| 20260504003047 | 61 | 299 | 9.0 | 15.0 | 0.00 | 0.00 | 0.00 | 71 | 1014.3 |
| 20260504001554 | 60 | 355 | 9.0 | 16.0 | 0.00 | 0.00 | 0.00 | 71 | 1014.3 |
| 20260504000035 | 59 | 307 | 8.0 | 14.0 | 0.00 | 0.00 | 0.00 | 74 | 1014.4 |
| 20260503234534 | 58 | 294 | 7.0 | 13.0 | 0.00 | 0.00 | 0.00 | 75 | 1014.3 |
| 20260503233027 | 58 | 281 | 7.0 | 14.0 | 0.00 | 0.00 | 0.00 | 75 | 1014.3 |
| 20260503231531 | 57 | 307 | 8.0 | 15.0 | 0.00 | 0.00 | 0.00 | 76 | 1014.3 |
| 20260503230019 | 56 | 327 | 7.0 | 14.0 | 0.00 | 0.00 | 0.00 | 77 | 1014.2 |
| 20260503224515 | 55 | 309 | 5.0 | 12.0 | 0.00 | 0.00 | 0.00 | 79 | 1014.1 |
| 20260503223021 | 54 | 314 | 6.0 | 12.0 | 0.00 | 0.00 | 0.00 | 81 | 1014.0 |
| 20260503221507 | 53 | 344 | 6.0 | 11.0 | 0.00 | 0.00 | 0.00 | 82 | 1014.0 |
| 20260503220004 | 52 | 328 | 5.0 | 11.0 | 0.00 | 0.01 | 0.00 | 84 | 1014.0 |
| 20260503214559 | 50 | 302 | 4.0 | 11.0 | 0.00 | 0.01 | 0.00 | 85 | 1014.0 |
| 20260503213125 | 50 | 327 | 2.0 | 9.0 | 0.00 | 0.01 | 0.00 | 86 | 1013.9 |
| 20260503211618 | 50 | 348 | 3.0 | 6.0 | 0.00 | 0.01 | 0.00 | 86 | 1013.7 |
| 20260503210051 | 49 | 321 | 4.0 | 8.0 | 0.00 | 0.01 | 0.00 | 87 | 1013.5 |
| 20260503204603 | 49 | 333 | 3.0 | 8.0 | 0.00 | 0.08 | 0.00 | 87 | 1013.3 |
| 20260503203049 | 49 | 350 | 2.0 | 4.0 | 0.00 | 0.08 | 0.00 | 87 | 1013.2 |
| 20260503201547 | 49 | 342 | 1.0 | 4.0 | 0.00 | 0.08 | 0.00 | 86 | 1013.1 |
| 20260503200046 | 49 | 324 | 2.0 | 4.0 | 0.00 | 0.08 | 0.00 | 86 | 1013.0 |
| 20260503194544 | 50 | 318 | 2.0 | 4.0 | 0.00 | 0.22 | 0.00 | 85 | 1013.1 |
| 20260503193042 | 50 | 331 | 2.0 | 4.0 | 0.00 | 0.22 | 0.00 | 85 | 1013.0 |
| 20260503191555 | 50 | 325 | 2.0 | 5.0 | 0.00 | 0.22 | 0.00 | 84 | 1012.9 |
| 20260503190044 | 51 | 331 | 2.0 | 5.0 | 0.00 | 0.22 | 0.00 | 84 | 1012.8 |
| 20260503184541 | 51 | 327 | 3.0 | 5.0 | 0.00 | 0.30 | 0.00 | 83 | 1012.8 |
| 20260503183042 | 51 | 320 | 2.0 | 5.0 | 0.00 | 0.30 | 0.00 | 82 | 1012.8 |
| 20260503181535 | 52 | 325 | 3.0 | 5.0 | 0.00 | 0.30 | 0.00 | 82 | 1012.8 |
| 20260503180036 | 52 | 313 | 3.0 | 4.0 | 0.00 | 0.30 | 0.00 | 82 | 1012.8 |
| 20260503174544 | 52 | 320 | 3.0 | 6.0 | 0.00 | 0.30 | 0.00 | 81 | 1012.8 |
| 20260503173032 | 52 | 304 | 3.0 | 6.0 | 0.00 | 0.30 | 0.00 | 81 | 1012.7 |
| 20260503171534 | 52 | 302 | 3.0 | 8.0 | 0.00 | 0.30 | 0.00 | 80 | 1012.9 |
| 20260503081504 | 58 | 301 | 1.0 | 3.0 | 0.00 | 0.72 | 0.38 | 71 | 1013.3 |
| 20260503071505 | 65 | 302 | 5.0 | 12.0 | 0.00 | 0.72 | 0.38 | 55 | 1012.6 |